COSMOS 2251 DEB

Satellite information

Favourite Embed

Satellite Type and Status

DEBRISIN ORBIT

Key statistics

Satellite COSMOS 2251 DEB at a glance.

Uptime

11650

Days in orbit

Revolutions

≈ 14.8

Per day

Orbit

LEO

Low Earth Orbit

Inclination

73.9

Latest

Satellite identification and parameters

Extended collection of information and parameters for COSMOS 2251 DEB.

Object identification

Identified? True

Debris? True

Object name: COSMOS 2251 DEB

International designator: 1993-036GJ

Object number (NORAD): 33999

Object ID (CCSDS): 33999

Country: COMMONWEALTH OF INDEPENDENT STATES (CIS)

Current information (Y/N): Y

RCS size: SMALL

Orbital parameters

Period: 97.423 minutes

Inclination: 73.9214 deg

SMA: 7013.518 km

Apoapsis: 669.051 km

Periapsis: 601.716 km

RAAN: 303.7918 deg

Eccentricy: 0.0048004

Argument of periapsis: 244.6885 deg

Mean anomaly: 114.9313 deg

Mean motion: 14.78083147 rev/day

Mean motion (dot): 0.00011249 rev/day2

B* drag term: 0.0015285 1/REarth

Two-line elements (TLE)

Creation date: May 9, 2025, 2:46 a.m.

Reference frame: TEME

Reference center: EARTH

Epoch: May 8, 2025, 1:23 p.m. UTC

TLE line 0: 0 COSMOS 2251 DEB

TLE line 1: 1 33999U 93036GJ 25128.55768711 .00011249 00000-0 15285-2 0 9992

TLE line 2: 2 33999 73.9214 303.7918 0048004 244.6885 114.9313 14.78083147860228

Live tracking on map

Real-time ground track for satellite COSMOS 2251 DEB.

In-orbit conjunctions

A list of the most updated potential collisions computed for object COSMOS 2251 DEB.

Target Orbit TCA Probability of collision Miss distance Type
YAOGAN 1 SSO 2025-04-25 05:06:52 0.0001399978 839.0 (m) PAYLOAD

Associated space launch

Military communications satellite. Destroyed in a collision with Iridium 33.

COSMOS 2251 DEB was lifted into orbit during the mission ‘Kosmos-3M | Strela-2M 51’, on board a Kosmos-3M space rocket.

The launch took place on June 16, 1993, 4:17 a.m. from 132/1 (132L).

For more information about the launch, click the button.

Launch to space Kosmos-3M | Strela-2M 51
Kosmos-3M | Strela-2M 51

Agency: N/A

Status: Launch Successful

Launch date: June 16, 1993, 4:17 a.m. UTC

Rocket: Kosmos-3M

Launch pad: 132/1 (132L)

Location: Plesetsk Cosmodrome, Russian Federation

...

Latest news about this satellite

There are no fresh news available about this satellite. Check back as we update our databases every day.


Newsletter sign-up

Weekly statistics, charts and insights to help you stay on top of the space industry.